owner,sensor,date,latitude,longitude,vertical_datum,wind_speed,wind_to_direction,wind_speed_of_gust,qcFlag 
TCOON,ioos:station:TCOON:524:1,2009-02-01T00:00:00Z,29.8672,-93.9310,0.0,3.7,193.0,5.0,'11111222,11111222,11111222' 
TCOON,ioos:station:TCOON:524:1,2009-02-01T00:06:00Z,29.8672,-93.9310,0.0,3.3,192.0,4.6,'11111222,11111222,11111222' 
TCOON,ioos:station:TCOON:524:1,2009-02-01T00:12:00Z,29.8672,-93.9310,0.0,3.2,192.0,3.9,'11111222,11111222,11111222' 
TCOON,ioos:station:TCOON:524:1,2009-02-01T00:18:00Z,29.8672,-93.9310,0.0,2.6,186.0,3.6,'11111222,11111222,11111222' 
TCOON,ioos:station:TCOON:524:1,2009-02-01T00:24:00Z,29.8672,-93.9310,0.0,3.3,181.0,4.2,'11111222,11111222,11111222' 
TCOON,ioos:station:TCOON:524:1,2009-02-01T00:30:00Z,29.8672,-93.9310,0.0,3.2,179.0,4.1,'11111222,11111222,11111222' 
TCOON,ioos:station:TCOON:524:1,2009-02-01T00:36:00Z,29.8672,-93.9310,0.0,3.1,177.0,4.4,'11111222,11111222,11111222' 
TCOON,ioos:station:TCOON:524:1,2009-02-01T00:42:00Z,29.8672,-93.9310,0.0,2.3,183.0,3.4,'11111222,11111222,11111222' 
TCOON,ioos:station:TCOON:524:1,2009-02-01T00:48:00Z,29.8672,-93.9310,0.0,2.4,188.0,3.2,'11111222,11111222,11111222' 
TCOON,ioos:station:TCOON:524:1,2009-02-01T00:54:00Z,29.8672,-93.9310,0.0,2.4,182.0,3.6,'11111222,11111222,11111222' 
TCOON,ioos:station:TCOON:524:1,2009-02-01T01:00:00Z,29.8672,-93.9310,0.0,2.9,181.0,3.8,'11111222,11111222,11111222' 
TCOON,ioos:station:TCOON:524:1,2009-02-01T02:06:00Z,29.8672,-93.9310,0.0,2.6,173.0,4.3,'11111222,11111222,11111222' 
TCOON,ioos:station:TCOON:524:1,2009-02-01T02:12:00Z,29.8672,-93.9310,0.0,3.0,181.0,4.0,'11111222,11111222,11111222' 
TCOON,ioos:station:TCOON:524:1,2009-02-01T02:18:00Z,29.8672,-93.9310,0.0,2.5,185.0,3.2,'11111222,11111222,11111222' 
TCOON,ioos:station:TCOON:524:1,2009-02-01T02:24:00Z,29.8672,-93.9310,0.0,2.4,183.0,3.3,'11111222,11111222,11111222' 
TCOON,ioos:station:TCOON:524:1,2009-02-01T02:30:00Z,29.8672,-93.9310,0.0,3.0,178.0,3.9,'11111222,11111222,11111222' 
TCOON,ioos:station:TCOON:524:1,2009-02-01T02:36:00Z,29.8672,-93.9310,0.0,3.1,184.0,4.4,'11111222,11111222,11111222' 
TCOON,ioos:station:TCOON:524:1,2009-02-01T02:42:00Z,29.8672,-93.9310,0.0,3.0,186.0,3.8,'11111222,11111222,11111222' 
TCOON,ioos:station:TCOON:524:1,2009-02-01T02:48:00Z,29.8672,-93.9310,0.0,3.2,181.0,4.3,'11111222,11111222,11111222' 
TCOON,ioos:station:TCOON:524:1,2009-02-01T02:54:00Z,29.8672,-93.9310,0.0,2.6,185.0,4.0,'11111222,11111222,11111222' 
TCOON,ioos:station:TCOON:524:1,2009-02-01T03:00:00Z,29.8672,-93.9310,0.0,2.2,191.0,2.8,'11111222,11111222,11111222' 
TCOON,ioos:station:TCOON:524:1,2009-02-01T03:06:00Z,29.8672,-93.9310,0.0,2.1,185.0,2.7,'11111222,11111222,11111222' 
TCOON,ioos:station:TCOON:524:1,2009-02-01T03:12:00Z,29.8672,-93.9310,0.0,2.8,193.0,3.8,'11111222,11111222,11111222' 
TCOON,ioos:station:TCOON:524:1,2009-02-01T03:18:00Z,29.8672,-93.9310,0.0,3.4,185.0,4.7,'11111222,11111222,11111222' 
TCOON,ioos:station:TCOON:524:1,2009-02-01T03:24:00Z,29.8672,-93.9310,0.0,3.2,184.0,4.8,'11111222,11111222,11111222' 
TCOON,ioos:station:TCOON:524:1,2009-02-01T03:30:00Z,29.8672,-93.9310,0.0,2.9,195.0,3.8,'11111222,11111222,11111222' 
TCOON,ioos:station:TCOON:524:1,2009-02-01T03:36:00Z,29.8672,-93.9310,0.0,3.3,189.0,4.3,'11111222,11111222,11111222' 
TCOON,ioos:station:TCOON:524:1,2009-02-01T03:42:00Z,29.8672,-93.9310,0.0,3.1,185.0,4.0,'11111222,11111222,11111222' 
TCOON,ioos:station:TCOON:524:1,2009-02-01T03:48:00Z,29.8672,-93.9310,0.0,2.7,181.0,3.5,'11111222,11111222,11111222' 
TCOON,ioos:station:TCOON:524:1,2009-02-01T03:54:00Z,29.8672,-93.9310,0.0,2.7,179.0,3.5,'11111222,11111222,11111222' 
TCOON,ioos:station:TCOON:524:1,2009-02-01T04:00:00Z,29.8672,-93.9310,0.0,3.0,177.0,3.9,'11111222,11111222,11111222' 
TCOON,ioos:station:TCOON:524:1,2009-02-01T04:06:00Z,29.8672,-93.9310,0.0,2.7,183.0,3.6,'11111222,11111222,11111222' 
TCOON,ioos:station:TCOON:524:1,2009-02-01T04:12:00Z,29.8672,-93.9310,0.0,2.5,179.0,3.4,'11111222,11111222,11111222' 
TCOON,ioos:station:TCOON:524:1,2009-02-01T04:18:00Z,29.8672,-93.9310,0.0,2.6,175.0,3.6,'11111222,11111222,11111222' 
TCOON,ioos:station:TCOON:524:1,2009-02-01T04:24:00Z,29.8672,-93.9310,0.0,2.8,175.0,4.3,'11111222,11111222,11111222' 
TCOON,ioos:station:TCOON:524:1,2009-02-01T04:30:00Z,29.8672,-93.9310,0.0,1.9,175.0,2.9,'11111222,11111222,11111222' 
TCOON,ioos:station:TCOON:524:1,2009-02-01T04:36:00Z,29.8672,-93.9310,0.0,2.0,171.0,3.0,'11111222,11111222,11111222' 
TCOON,ioos:station:TCOON:524:1,2009-02-01T04:42:00Z,29.8672,-93.9310,0.0,2.4,182.0,3.3,'11111222,11111222,11111222' 
TCOON,ioos:station:TCOON:524:1,2009-02-01T04:48:00Z,29.8672,-93.9310,0.0,2.3,176.0,3.1,'11111222,11111222,11111222' 
TCOON,ioos:station:TCOON:524:1,2009-02-01T04:54:00Z,29.8672,-93.9310,0.0,1.9,167.0,2.5,'11111222,11111222,11111222' 
TCOON,ioos:station:TCOON:524:1,2009-02-01T05:00:00Z,29.8672,-93.9310,0.0,2.2,173.0,3.1,'11111222,11111222,11111222' 
TCOON,ioos:station:TCOON:524:1,2009-02-01T05:06:00Z,29.8672,-93.9310,0.0,1.7,171.0,2.5,'11111222,11111222,11111222' 
TCOON,ioos:station:TCOON:524:1,2009-02-01T05:12:00Z,29.8672,-93.9310,0.0,1.3,158.0,1.9,'11111222,11111222,11111222' 
TCOON,ioos:station:TCOON:524:1,2009-02-01T05:18:00Z,29.8672,-93.9310,0.0,1.7,164.0,2.7,'11111222,11111222,11111222' 
TCOON,ioos:station:TCOON:524:1,2009-02-01T05:24:00Z,29.8672,-93.9310,0.0,1.7,168.0,2.3,'11111222,11111222,11111222' 
TCOON,ioos:station:TCOON:524:1,2009-02-01T05:30:00Z,29.8672,-93.9310,0.0,1.5,168.0,2.0,'11111222,11111222,11111222' 
TCOON,ioos:station:TCOON:524:1,2009-02-01T05:36:00Z,29.8672,-93.9310,0.0,1.6,169.0,2.6,'11111222,11111222,11111222' 
TCOON,ioos:station:TCOON:524:1,2009-02-01T05:42:00Z,29.8672,-93.9310,0.0,1.9,169.0,2.9,'11111222,11111222,11111222' 
TCOON,ioos:station:TCOON:524:1,2009-02-01T05:48:00Z,29.8672,-93.9310,0.0,2.0,171.0,2.6,'11111222,11111222,11111222' 
TCOON,ioos:station:TCOON:524:1,2009-02-01T05:54:00Z,29.8672,-93.9310,0.0,2.0,175.0,2.8,'11111222,11111222,11111222' 
TCOON,ioos:station:TCOON:524:1,2009-02-01T06:00:00Z,29.8672,-93.9310,0.0,1.8,166.0,2.8,'11111222,11111222,11111222' 
TCOON,ioos:station:TCOON:524:1,2009-02-01T06:06:00Z,29.8672,-93.9310,0.0,1.4,170.0,1.9,'11111222,11111222,11111222' 
TCOON,ioos:station:TCOON:524:1,2009-02-01T06:12:00Z,29.8672,-93.9310,0.0,1.5,169.0,2.2,'11111222,11111222,11111222' 
TCOON,ioos:station:TCOON:524:1,2009-02-01T06:18:00Z,29.8672,-93.9310,0.0,1.6,164.0,2.6,'11111222,11111222,11111222' 
TCOON,ioos:station:TCOON:524:1,2009-02-01T06:24:00Z,29.8672,-93.9310,0.0,1.3,163.0,1.8,'11111222,11111222,11111222' 
TCOON,ioos:station:TCOON:524:1,2009-02-01T06:30:00Z,29.8672,-93.9310,0.0,1.6,161.0,2.3,'11111222,11111222,11111222' 
TCOON,ioos:station:TCOON:524:1,2009-02-01T06:36:00Z,29.8672,-93.9310,0.0,1.4,161.0,2.2,'11111222,11111222,11111222' 
TCOON,ioos:station:TCOON:524:1,2009-02-01T06:42:00Z,29.8672,-93.9310,0.0,1.2,162.0,2.0,'11111222,11111222,11111222' 
TCOON,ioos:station:TCOON:524:1,2009-02-01T06:48:00Z,29.8672,-93.9310,0.0,1.5,169.0,2.1,'11111222,11111222,11111222' 
TCOON,ioos:station:TCOON:524:1,2009-02-01T06:54:00Z,29.8672,-93.9310,0.0,1.4,176.0,2.0,'11111222,11111222,11111222' 
TCOON,ioos:station:TCOON:524:1,2009-02-01T07:00:00Z,29.8672,-93.9310,0.0,1.4,166.0,2.0,'11111222,11111222,11111222' 
TCOON,ioos:station:TCOON:524:1,2009-02-01T07:06:00Z,29.8672,-93.9310,0.0,1.4,164.0,1.9,'11111222,11111222,11111222' 
TCOON,ioos:station:TCOON:524:1,2009-02-01T07:12:00Z,29.8672,-93.9310,0.0,1.4,155.0,1.8,'11111222,11111222,11111222' 
TCOON,ioos:station:TCOON:524:1,2009-02-01T07:18:00Z,29.8672,-93.9310,0.0,1.4,152.0,2.4,'11111222,11111222,11111222' 
TCOON,ioos:station:TCOON:524:1,2009-02-01T07:24:00Z,29.8672,-93.9310,0.0,1.6,147.0,2.2,'11111222,11111222,11111222' 
TCOON,ioos:station:TCOON:524:1,2009-02-01T07:30:00Z,29.8672,-93.9310,0.0,1.5,147.0,2.3,'11111222,11111222,11111222' 
TCOON,ioos:station:TCOON:524:1,2009-02-01T07:36:00Z,29.8672,-93.9310,0.0,1.7,155.0,2.3,'11111222,11111222,11111222' 
TCOON,ioos:station:TCOON:524:1,2009-02-01T07:42:00Z,29.8672,-93.9310,0.0,1.9,150.0,2.7,'11111222,11111222,11111222' 
TCOON,ioos:station:TCOON:524:1,2009-02-01T07:48:00Z,29.8672,-93.9310,0.0,1.8,143.0,2.5,'11111222,11111222,11111222' 
TCOON,ioos:station:TCOON:524:1,2009-02-01T07:54:00Z,29.8672,-93.9310,0.0,1.5,141.0,2.1,'11111222,11111222,11111222' 
TCOON,ioos:station:TCOON:524:1,2009-02-01T08:00:00Z,29.8672,-93.9310,0.0,1.5,135.0,1.9,'11111222,11111222,11111222' 
TCOON,ioos:station:TCOON:524:1,2009-02-01T08:06:00Z,29.8672,-93.9310,0.0,1.8,130.0,2.1,'11111222,11111222,11111222' 
TCOON,ioos:station:TCOON:524:1,2009-02-01T08:12:00Z,29.8672,-93.9310,0.0,1.7,130.0,2.0,'11111222,11111222,11111222' 
TCOON,ioos:station:TCOON:524:1,2009-02-01T08:18:00Z,29.8672,-93.9310,0.0,1.5,128.0,2.0,'11111222,11111222,11111222' 
TCOON,ioos:station:TCOON:524:1,2009-02-01T08:24:00Z,29.8672,-93.9310,0.0,1.4,119.0,1.7,'11111222,11111222,11111222' 
TCOON,ioos:station:TCOON:524:1,2009-02-01T08:30:00Z,29.8672,-93.9310,0.0,1.6,111.0,1.9,'11111222,11111222,11111222' 
TCOON,ioos:station:TCOON:524:1,2009-02-01T08:36:00Z,29.8672,-93.9310,0.0,1.6,113.0,1.9,'11111222,11111222,11111222' 
TCOON,ioos:station:TCOON:524:1,2009-02-01T08:42:00Z,29.8672,-93.9310,0.0,1.4,117.0,1.7,'11111222,11111222,11111222' 
TCOON,ioos:station:TCOON:524:1,2009-02-01T08:48:00Z,29.8672,-93.9310,0.0,1.5,116.0,1.8,'11111222,11111222,11111222' 
TCOON,ioos:station:TCOON:524:1,2009-02-01T08:54:00Z,29.8672,-93.9310,0.0,1.8,109.0,2.0,'11111222,11111222,11111222' 
TCOON,ioos:station:TCOON:524:1,2009-02-01T09:00:00Z,29.8672,-93.9310,0.0,1.7,121.0,1.8,'11111222,11111222,11111222' 
TCOON,ioos:station:TCOON:524:1,2009-02-01T09:06:00Z,29.8672,-93.9310,0.0,1.2,138.0,1.7,'11111222,11111222,11111222' 
TCOON,ioos:station:TCOON:524:1,2009-02-01T09:12:00Z,29.8672,-93.9310,0.0,1.5,136.0,2.0,'11111222,11111222,11111222' 
TCOON,ioos:station:TCOON:524:1,2009-02-01T09:18:00Z,29.8672,-93.9310,0.0,1.4,122.0,1.8,'11111222,11111222,11111222' 
TCOON,ioos:station:TCOON:524:1,2009-02-01T09:24:00Z,29.8672,-93.9310,0.0,1.1,152.0,1.8,'11111222,11111222,11111222' 
TCOON,ioos:station:TCOON:524:1,2009-02-01T09:30:00Z,29.8672,-93.9310,0.0,2.1,114.0,2.7,'11111222,11111222,11111222' 
TCOON,ioos:station:TCOON:524:1,2009-02-01T09:36:00Z,29.8672,-93.9310,0.0,1.8,115.0,2.3,'11111222,11111222,11111222' 
TCOON,ioos:station:TCOON:524:1,2009-02-01T09:42:00Z,29.8672,-93.9310,0.0,2.2,121.0,2.7,'11111222,11111222,11111222' 
TCOON,ioos:station:TCOON:524:1,2009-02-01T09:48:00Z,29.8672,-93.9310,0.0,1.9,122.0,2.4,'11111222,11111222,11111222' 
TCOON,ioos:station:TCOON:524:1,2009-02-01T09:54:00Z,29.8672,-93.9310,0.0,1.9,136.0,2.5,'11111222,11111222,11111222' 
TCOON,ioos:station:TCOON:524:1,2009-02-01T10:00:00Z,29.8672,-93.9310,0.0,1.5,124.0,1.9,'11111222,11111222,11111222' 
TCOON,ioos:station:TCOON:524:1,2009-02-01T10:06:00Z,29.8672,-93.9310,0.0,1.6,102.0,2.0,'11111222,11111222,11111222' 
TCOON,ioos:station:TCOON:524:1,2009-02-01T10:12:00Z,29.8672,-93.9310,0.0,1.5,111.0,2.0,'11111222,11111222,11111222' 
TCOON,ioos:station:TCOON:524:1,2009-02-01T10:18:00Z,29.8672,-93.9310,0.0,1.3,105.0,1.6,'11111222,11111222,11111222' 
TCOON,ioos:station:TCOON:524:1,2009-02-01T10:24:00Z,29.8672,-93.9310,0.0,1.5,106.0,1.9,'11111222,11111222,11111222' 
TCOON,ioos:station:TCOON:524:1,2009-02-01T10:30:00Z,29.8672,-93.9310,0.0,1.6,101.0,2.1,'11111222,11111222,11111222' 
TCOON,ioos:station:TCOON:524:1,2009-02-01T10:36:00Z,29.8672,-93.9310,0.0,1.6,103.0,2.2,'11111222,11111222,11111222' 
TCOON,ioos:station:TCOON:524:1,2009-02-01T10:42:00Z,29.8672,-93.9310,0.0,1.7,100.0,2.2,'11111222,11111222,11111222' 
TCOON,ioos:station:TCOON:524:1,2009-02-01T10:48:00Z,29.8672,-93.9310,0.0,1.9,108.0,2.6,'11111222,11111222,11111222' 
TCOON,ioos:station:TCOON:524:1,2009-02-01T10:54:00Z,29.8672,-93.9310,0.0,1.6,112.0,2.2,'11111222,11111222,11111222' 
TCOON,ioos:station:TCOON:524:1,2009-02-01T11:00:00Z,29.8672,-93.9310,0.0,1.7,102.0,2.3,'11111222,11111222,11111222' 
TCOON,ioos:station:TCOON:524:1,2009-02-01T11:06:00Z,29.8672,-93.9310,0.0,1.7,99.0,2.2,'11111222,11111222,11111222' 
TCOON,ioos:station:TCOON:524:1,2009-02-01T11:12:00Z,29.8672,-93.9310,0.0,1.6,95.0,2.2,'11111222,11111222,11111222' 
TCOON,ioos:station:TCOON:524:1,2009-02-01T11:18:00Z,29.8672,-93.9310,0.0,1.5,90.0,2.1,'11111222,11111222,11111222' 
TCOON,ioos:station:TCOON:524:1,2009-02-01T11:24:00Z,29.8672,-93.9310,0.0,1.5,94.0,2.3,'11111222,11111222,11111222' 
TCOON,ioos:station:TCOON:524:1,2009-02-01T11:30:00Z,29.8672,-93.9310,0.0,2.1,95.0,3.4,'11111222,11111222,11111222' 
TCOON,ioos:station:TCOON:524:1,2009-02-01T11:36:00Z,29.8672,-93.9310,0.0,2.4,98.0,3.2,'11111222,11111222,11111222' 
TCOON,ioos:station:TCOON:524:1,2009-02-01T11:42:00Z,29.8672,-93.9310,0.0,1.9,101.0,2.7,'11111222,11111222,11111222' 
TCOON,ioos:station:TCOON:524:1,2009-02-01T11:48:00Z,29.8672,-93.9310,0.0,2.8,104.0,3.9,'11111222,11111222,11111222' 
TCOON,ioos:station:TCOON:524:1,2009-02-01T11:54:00Z,29.8672,-93.9310,0.0,2.3,104.0,3.2,'11111222,11111222,11111222' 
TCOON,ioos:station:TCOON:524:1,2009-02-01T12:00:00Z,29.8672,-93.9310,0.0,2.4,103.0,3.6,'11111222,11111222,11111222' 
TCOON,ioos:station:TCOON:524:1,2009-02-01T12:06:00Z,29.8672,-93.9310,0.0,2.4,106.0,3.6,'11111222,11111222,11111222' 
TCOON,ioos:station:TCOON:524:1,2009-02-01T12:12:00Z,29.8672,-93.9310,0.0,2.7,101.0,3.8,'11111222,11111222,11111222' 
TCOON,ioos:station:TCOON:524:1,2009-02-01T12:18:00Z,29.8672,-93.9310,0.0,2.5,98.0,3.6,'11111222,11111222,11111222' 
TCOON,ioos:station:TCOON:524:1,2009-02-01T12:24:00Z,29.8672,-93.9310,0.0,2.6,103.0,4.0,'11111222,11111222,11111222' 
TCOON,ioos:station:TCOON:524:1,2009-02-01T12:30:00Z,29.8672,-93.9310,0.0,2.7,104.0,3.7,'11111222,11111222,11111222' 
TCOON,ioos:station:TCOON:524:1,2009-02-01T12:36:00Z,29.8672,-93.9310,0.0,2.7,104.0,4.0,'11111222,11111222,11111222' 
TCOON,ioos:station:TCOON:524:1,2009-02-01T12:42:00Z,29.8672,-93.9310,0.0,2.8,104.0,3.7,'11111222,11111222,11111222' 
TCOON,ioos:station:TCOON:524:1,2009-02-01T12:48:00Z,29.8672,-93.9310,0.0,2.3,113.0,3.1,'11111222,11111222,11111222' 
TCOON,ioos:station:TCOON:524:1,2009-02-01T12:54:00Z,29.8672,-93.9310,0.0,2.2,120.0,3.0,'11111222,11111222,11111222' 
TCOON,ioos:station:TCOON:524:1,2009-02-01T13:00:00Z,29.8672,-93.9310,0.0,1.8,119.0,2.8,'11111222,11111222,11111222' 
TCOON,ioos:station:TCOON:524:1,2009-02-01T13:06:00Z,29.8672,-93.9310,0.0,1.9,118.0,2.5,'11111222,11111222,11111222' 
TCOON,ioos:station:TCOON:524:1,2009-02-01T13:12:00Z,29.8672,-93.9310,0.0,1.8,115.0,2.4,'11111222,11111222,11111222' 
TCOON,ioos:station:TCOON:524:1,2009-02-01T13:18:00Z,29.8672,-93.9310,0.0,1.9,119.0,2.9,'11111222,11111222,11111222' 
TCOON,ioos:station:TCOON:524:1,2009-02-01T13:24:00Z,29.8672,-93.9310,0.0,2.0,115.0,3.2,'11111222,11111222,11111222' 
TCOON,ioos:station:TCOON:524:1,2009-02-01T13:30:00Z,29.8672,-93.9310,0.0,2.2,117.0,4.0,'11111222,11111222,11111222' 
TCOON,ioos:station:TCOON:524:1,2009-02-01T13:36:00Z,29.8672,-93.9310,0.0,2.7,117.0,4.6,'11111222,11111222,11111222' 
TCOON,ioos:station:TCOON:524:1,2009-02-01T13:42:00Z,29.8672,-93.9310,0.0,2.5,117.0,4.2,'11111222,11111222,11111222' 
TCOON,ioos:station:TCOON:524:1,2009-02-01T13:48:00Z,29.8672,-93.9310,0.0,3.1,111.0,4.4,'11111222,11111222,11111222' 
TCOON,ioos:station:TCOON:524:1,2009-02-01T13:54:00Z,29.8672,-93.9310,0.0,2.9,111.0,4.1,'11111222,11111222,11111222' 
TCOON,ioos:station:TCOON:524:1,2009-02-01T14:00:00Z,29.8672,-93.9310,0.0,1.9,109.0,2.7,'11111222,11111222,11111222' 
TCOON,ioos:station:TCOON:524:1,2009-02-01T14:06:00Z,29.8672,-93.9310,0.0,1.9,116.0,2.8,'11111222,11111222,11111222' 
TCOON,ioos:station:TCOON:524:1,2009-02-01T14:12:00Z,29.8672,-93.9310,0.0,1.7,110.0,2.8,'11111222,11111222,11111222' 
TCOON,ioos:station:TCOON:524:1,2009-02-01T14:18:00Z,29.8672,-93.9310,0.0,1.4,106.0,2.0,'11111222,11111222,11111222' 
TCOON,ioos:station:TCOON:524:1,2009-02-01T14:24:00Z,29.8672,-93.9310,0.0,2.2,118.0,3.4,'11111222,11111222,11111222' 
TCOON,ioos:station:TCOON:524:1,2009-02-01T14:30:00Z,29.8672,-93.9310,0.0,2.1,109.0,3.5,'11111222,11111222,11111222' 
TCOON,ioos:station:TCOON:524:1,2009-02-01T14:36:00Z,29.8672,-93.9310,0.0,2.2,117.0,3.5,'11111222,11111222,11111222' 
TCOON,ioos:station:TCOON:524:1,2009-02-01T14:42:00Z,29.8672,-93.9310,0.0,2.6,112.0,4.1,'11111222,11111222,11111222' 
TCOON,ioos:station:TCOON:524:1,2009-02-01T14:48:00Z,29.8672,-93.9310,0.0,2.6,110.0,4.2,'11111222,11111222,11111222' 
TCOON,ioos:station:TCOON:524:1,2009-02-01T14:54:00Z,29.8672,-93.9310,0.0,2.3,112.0,3.4,'11111222,11111222,11111222' 
TCOON,ioos:station:TCOON:524:1,2009-02-01T15:00:00Z,29.8672,-93.9310,0.0,2.4,110.0,3.2,'11111222,11111222,11111222' 
TCOON,ioos:station:TCOON:524:1,2009-02-01T15:06:00Z,29.8672,-93.9310,0.0,1.7,113.0,3.1,'11111222,11111222,11111222' 
TCOON,ioos:station:TCOON:524:1,2009-02-01T15:12:00Z,29.8672,-93.9310,0.0,2.2,112.0,3.3,'11111222,11111222,11111222' 
TCOON,ioos:station:TCOON:524:1,2009-02-01T15:18:00Z,29.8672,-93.9310,0.0,2.7,116.0,4.3,'11111222,11111222,11111222' 
TCOON,ioos:station:TCOON:524:1,2009-02-01T15:24:00Z,29.8672,-93.9310,0.0,3.0,113.0,4.3,'11111222,11111222,11111222' 
TCOON,ioos:station:TCOON:524:1,2009-02-01T15:30:00Z,29.8672,-93.9310,0.0,2.6,117.0,3.9,'11111222,11111222,11111222' 
TCOON,ioos:station:TCOON:524:1,2009-02-01T15:36:00Z,29.8672,-93.9310,0.0,2.5,122.0,3.4,'11111222,11111222,11111222' 
TCOON,ioos:station:TCOON:524:1,2009-02-01T15:42:00Z,29.8672,-93.9310,0.0,3.8,125.0,5.7,'11111222,11111222,11111222' 
TCOON,ioos:station:TCOON:524:1,2009-02-01T15:48:00Z,29.8672,-93.9310,0.0,4.2,131.0,5.8,'11111222,11111222,11111222' 
TCOON,ioos:station:TCOON:524:1,2009-02-01T15:54:00Z,29.8672,-93.9310,0.0,5.2,130.0,8.2,'11111222,11111222,11111222' 
TCOON,ioos:station:TCOON:524:1,2009-02-01T16:00:00Z,29.8672,-93.9310,0.0,5.6,127.0,7.7,'11111222,11111222,11111222' 
TCOON,ioos:station:TCOON:524:1,2009-02-01T16:06:00Z,29.8672,-93.9310,0.0,5.9,130.0,8.3,'11111222,11111222,11111222' 
TCOON,ioos:station:TCOON:524:1,2009-02-01T16:12:00Z,29.8672,-93.9310,0.0,6.1,128.0,8.5,'11111222,11111222,11111222' 
TCOON,ioos:station:TCOON:524:1,2009-02-01T16:18:00Z,29.8672,-93.9310,0.0,6.6,123.0,9.2,'11111222,11111222,11111222' 
TCOON,ioos:station:TCOON:524:1,2009-02-01T16:24:00Z,29.8672,-93.9310,0.0,5.8,133.0,7.6,'11111222,11111222,11111222' 
TCOON,ioos:station:TCOON:524:1,2009-02-01T16:30:00Z,29.8672,-93.9310,0.0,5.7,134.0,8.2,'11111222,11111222,11111222' 
TCOON,ioos:station:TCOON:524:1,2009-02-01T16:36:00Z,29.8672,-93.9310,0.0,5.9,135.0,8.1,'11111222,11111222,11111222' 
TCOON,ioos:station:TCOON:524:1,2009-02-01T16:42:00Z,29.8672,-93.9310,0.0,6.1,134.0,8.8,'11111222,11111222,11111222' 
TCOON,ioos:station:TCOON:524:1,2009-02-01T16:48:00Z,29.8672,-93.9310,0.0,4.6,141.0,7.3,'11111222,11111222,11111222' 
TCOON,ioos:station:TCOON:524:1,2009-02-01T16:54:00Z,29.8672,-93.9310,0.0,4.7,143.0,6.5,'11111222,11111222,11111222' 
TCOON,ioos:station:TCOON:524:1,2009-02-01T17:00:00Z,29.8672,-93.9310,0.0,4.6,141.0,7.0,'11111222,11111222,11111222' 
TCOON,ioos:station:TCOON:524:1,2009-02-01T17:06:00Z,29.8672,-93.9310,0.0,4.7,138.0,6.8,'11111222,11111222,11111222' 
TCOON,ioos:station:TCOON:524:1,2009-02-01T17:12:00Z,29.8672,-93.9310,0.0,5.0,142.0,7.8,'11111222,11111222,11111222' 
TCOON,ioos:station:TCOON:524:1,2009-02-01T17:18:00Z,29.8672,-93.9310,0.0,4.4,140.0,7.7,'11111222,11111222,11111222' 
TCOON,ioos:station:TCOON:524:1,2009-02-01T17:24:00Z,29.8672,-93.9310,0.0,4.4,144.0,6.8,'11111222,11111222,11111222' 
TCOON,ioos:station:TCOON:524:1,2009-02-01T17:30:00Z,29.8672,-93.9310,0.0,4.7,143.0,7.8,'11111222,11111222,11111222' 
TCOON,ioos:station:TCOON:524:1,2009-02-01T17:36:00Z,29.8672,-93.9310,0.0,4.8,143.0,6.4,'11111222,11111222,11111222' 
TCOON,ioos:station:TCOON:524:1,2009-02-01T17:42:00Z,29.8672,-93.9310,0.0,4.5,142.0,6.9,'11111222,11111222,11111222' 
TCOON,ioos:station:TCOON:524:1,2009-02-01T17:48:00Z,29.8672,-93.9310,0.0,4.2,147.0,6.9,'11111222,11111222,11111222' 
TCOON,ioos:station:TCOON:524:1,2009-02-01T17:54:00Z,29.8672,-93.9310,0.0,5.1,145.0,7.7,'11111222,11111222,11111222' 
TCOON,ioos:station:TCOON:524:1,2009-02-01T18:00:00Z,29.8672,-93.9310,0.0,4.9,142.0,7.1,'11111222,11111222,11111222' 
TCOON,ioos:station:TCOON:524:1,2009-02-01T18:06:00Z,29.8672,-93.9310,0.0,5.2,144.0,7.0,'11111222,11111222,11111222' 
TCOON,ioos:station:TCOON:524:1,2009-02-01T18:12:00Z,29.8672,-93.9310,0.0,5.4,138.0,7.3,'11111222,11111222,11111222' 
TCOON,ioos:station:TCOON:524:1,2009-02-01T18:18:00Z,29.8672,-93.9310,0.0,4.6,146.0,7.8,'11111222,11111222,11111222' 
TCOON,ioos:station:TCOON:524:1,2009-02-01T18:24:00Z,29.8672,-93.9310,0.0,5.0,144.0,7.6,'11111222,11111222,11111222' 
TCOON,ioos:station:TCOON:524:1,2009-02-01T18:30:00Z,29.8672,-93.9310,0.0,5.1,143.0,7.9,'11111222,11111222,11111222' 
TCOON,ioos:station:TCOON:524:1,2009-02-01T18:36:00Z,29.8672,-93.9310,0.0,4.3,146.0,8.0,'11111222,11111222,11111222' 
TCOON,ioos:station:TCOON:524:1,2009-02-01T18:42:00Z,29.8672,-93.9310,0.0,4.9,143.0,6.9,'11111222,11111222,11111222' 
TCOON,ioos:station:TCOON:524:1,2009-02-01T18:48:00Z,29.8672,-93.9310,0.0,5.2,140.0,7.2,'11111222,11111222,11111222' 
TCOON,ioos:station:TCOON:524:1,2009-02-01T18:54:00Z,29.8672,-93.9310,0.0,5.8,138.0,7.7,'11111222,11111222,11111222' 
TCOON,ioos:station:TCOON:524:1,2009-02-01T19:00:00Z,29.8672,-93.9310,0.0,5.2,139.0,7.7,'11111222,11111222,11111222' 
TCOON,ioos:station:TCOON:524:1,2009-02-01T19:06:00Z,29.8672,-93.9310,0.0,4.7,138.0,7.3,'11111222,11111222,11111222' 
TCOON,ioos:station:TCOON:524:1,2009-02-01T19:12:00Z,29.8672,-93.9310,0.0,5.4,136.0,7.5,'11111222,11111222,11111222' 
TCOON,ioos:station:TCOON:524:1,2009-02-01T19:18:00Z,29.8672,-93.9310,0.0,6.0,137.0,8.3,'11111222,11111222,11111222' 
TCOON,ioos:station:TCOON:524:1,2009-02-01T19:24:00Z,29.8672,-93.9310,0.0,5.6,137.0,7.6,'11111222,11111222,11111222' 
TCOON,ioos:station:TCOON:524:1,2009-02-01T19:30:00Z,29.8672,-93.9310,0.0,6.2,134.0,8.8,'11111222,11111222,11111222' 
TCOON,ioos:station:TCOON:524:1,2009-02-01T19:36:00Z,29.8672,-93.9310,0.0,4.8,135.0,7.1,'11111222,11111222,11111222' 
TCOON,ioos:station:TCOON:524:1,2009-02-01T19:42:00Z,29.8672,-93.9310,0.0,4.8,137.0,6.5,'11111222,11111222,11111222' 
TCOON,ioos:station:TCOON:524:1,2009-02-01T19:48:00Z,29.8672,-93.9310,0.0,4.8,137.0,6.5,'11111222,11111222,11111222' 
TCOON,ioos:station:TCOON:524:1,2009-02-01T19:54:00Z,29.8672,-93.9310,0.0,5.0,135.0,6.8,'11111222,11111222,11111222' 
TCOON,ioos:station:TCOON:524:1,2009-02-01T20:00:00Z,29.8672,-93.9310,0.0,4.6,132.0,6.5,'11111222,11111222,11111222' 
TCOON,ioos:station:TCOON:524:1,2009-02-01T20:06:00Z,29.8672,-93.9310,0.0,4.8,135.0,6.6,'11111222,11111222,11111222' 
TCOON,ioos:station:TCOON:524:1,2009-02-01T20:12:00Z,29.8672,-93.9310,0.0,4.6,135.0,6.3,'11111222,11111222,11111222' 
TCOON,ioos:station:TCOON:524:1,2009-02-01T20:18:00Z,29.8672,-93.9310,0.0,5.2,137.0,7.2,'11111222,11111222,11111222' 
TCOON,ioos:station:TCOON:524:1,2009-02-01T20:24:00Z,29.8672,-93.9310,0.0,5.0,134.0,6.4,'11111222,11111222,11111222' 
TCOON,ioos:station:TCOON:524:1,2009-02-01T20:30:00Z,29.8672,-93.9310,0.0,4.4,138.0,6.0,'11111222,11111222,11111222' 
TCOON,ioos:station:TCOON:524:1,2009-02-01T20:36:00Z,29.8672,-93.9310,0.0,4.5,135.0,6.4,'11111222,11111222,11111222' 
TCOON,ioos:station:TCOON:524:1,2009-02-01T20:42:00Z,29.8672,-93.9310,0.0,4.4,146.0,6.2,'11111222,11111222,11111222' 
TCOON,ioos:station:TCOON:524:1,2009-02-01T20:48:00Z,29.8672,-93.9310,0.0,4.5,144.0,6.3,'11111222,11111222,11111222' 
TCOON,ioos:station:TCOON:524:1,2009-02-01T20:54:00Z,29.8672,-93.9310,0.0,3.6,141.0,5.0,'11111222,11111222,11111222' 
TCOON,ioos:station:TCOON:524:1,2009-02-01T21:00:00Z,29.8672,-93.9310,0.0,4.2,145.0,6.1,'11111222,11111222,11111222' 
TCOON,ioos:station:TCOON:524:1,2009-02-01T21:06:00Z,29.8672,-93.9310,0.0,3.5,138.0,5.3,'11111222,11111222,11111222' 
TCOON,ioos:station:TCOON:524:1,2009-02-01T21:12:00Z,29.8672,-93.9310,0.0,4.4,137.0,6.2,'11111222,11111222,11111222' 
TCOON,ioos:station:TCOON:524:1,2009-02-01T21:18:00Z,29.8672,-93.9310,0.0,4.2,142.0,6.0,'11111222,11111222,11111222' 